www.pogodaiklimat.ru

Погода и климат >> Архив погоды >> Оман >> Диба


ПОГОДА в Дибе

  • Прогноз погоды в Дибе
  • Монитор погоды в Дибе

АРХИВ ПОГОДЫ в Дибе

Время (UTC), дата Ветер
(напр.,м/с)
 
Видим.   Явления Облачность Т
(С)
Тd
(С)
f
(%)
Тe
(С)
Тes
(С)
Комфортность P
(гПа)
Po
(гПа)
Тmin
(С)
Tmax
(С)
R
(мм)
R24
(мм)
S
(см)
12 16.07 С 3 н/о н/о +35.9 +28.4 65 +57 +57 опасность
перегрева
996.0 993.7
15 16.07 С 2 н/о н/о +34.1 +28.7 74 +57 +57 опасность
перегрева
996.6 994.2
18 16.07 штиль 0 н/о н/о +33.2 +28.9 78 +56 +56 опасность
перегрева
997.7 995.3 +37.4
21 16.07 С 2 н/о н/о +32.4 +28.9 82 +56 +56 опасность
перегрева
998.2 995.8
00 17.07 н/о н/о +32.1 +29.6 87 998.5 996.1
03 17.07 СВ 3 н/о н/о +32.5 +28.3 79 +54 +54 опасность
перегрева
997.6
06 17.07 СВ 4 н/о н/о +34.7 +28.0 68 +55 +55 опасность
перегрева
1000.8 998.4 +31.5
09 17.07 СВ 4 н/о н/о +36.3 +27.4 60 +55 +55 опасность
перегрева
1000.0 997.6
12 17.07 С 3 н/о н/о +35.0 +27.3 64 +53 +53 опасность
перегрева
998.4 996.0
15 17.07 С 3 н/о н/о +33.2 +27.7 73 +53 +53 опасность
перегрева
998.8 996.3
18 17.07 С 2 н/о н/о +32.2 +28.1 79 +53 +53 опасность
перегрева
999.6 997.2 +37.1
21 17.07 н/о н/о +31.6 +28.4 83 999.2 996.8
00 18.07 СВ 2 н/о н/о +31.8 +28.1 81 +53 +53 опасность
перегрева
999.2 996.8
03 18.07 В 3 н/о н/о +32.3 +26.7 72 +49 +49 опасность
перегрева
1001.0 998.6
06 18.07 В 4 н/о н/о +33.9 +26.1 64 +50 +50 опасность
перегрева
1001.5 999.1 +31.4
09 18.07 СВ 3 н/о н/о +34.4 +26.4 63 +51 +51 опасность
перегрева
1000.5 998.1
12 18.07 СВ 4 н/о н/о +34.7 +26.5 63 +52 +52 опасность
перегрева
998.6 996.2
15 18.07 н/о н/о +32.8 +26.9 71 998.7 996.3
18 18.07 С 2 н/о н/о +31.7 +27.1 77 +50 +50 опасность
перегрева
999.7 997.3 +35.7
21 18.07 С 2 н/о н/о +31.5 +27.7 80 +51 +51 опасность
перегрева
999.4 997.0
00 19.07 СВ 2 н/о н/о +31.1 +27.0 79 +49 +49 опасность
перегрева
999.5 997.0
03 19.07 СВ 1 н/о н/о +31.8 +26.3 73 +48 +48 опасность
перегрева
1000.5 998.1
12 19.07 С 4 н/о н/о +34.2 +26.2 63 +50 +50 опасность
перегрева
998.7 996.2
15 19.07 С 1 н/о н/о +32.5 +26.9 72 +50 +50 опасность
перегрева
999.7 997.3
18 19.07 С 1 н/о н/о +32.0 +26.7 74 +49 +49 опасность
перегрева
999.9 997.5 +35.6
21 19.07 СЗ 1 н/о н/о +31.3 +28.0 83 +52 +52 опасность
перегрева
1000.3 997.9
00 20.07 СВ 3 н/о н/о +31.7 +28.0 81 +52 +52 опасность
перегрева
1001.0 998.6
03 20.07 СВ 2 н/о н/о +31.7 +26.5 74 +48 +48 опасность
перегрева
1002.7 1000.3
06 20.07 СВ 4 н/о н/о +34.5 +26.1 62 +51 +51 опасность
перегрева
1002.9 1000.5 +31.3
09 20.07 СВ 5 н/о н/о +34.9 +26.8 63 +52 +52 опасность
перегрева
1002.2 999.8
12 20.07 С 4 н/о н/о +34.3 +26.7 65 +52 +52 опасность
перегрева
1000.7 998.3
15 20.07 С 3 н/о н/о +32.4 +26.9 73 +50 +50 опасность
перегрева
1000.2 997.8
18 20.07 н/о н/о +31.6 +27.3 78 1001.6 999.2 +35.7
21 20.07 СВ 3 н/о н/о +31.8 +27.3 77 +50 +50 опасность
перегрева
1002.3 999.8
00 21.07 СВ 2 н/о н/о +31.4 +27.0 78 +49 +49 опасность
перегрева
1001.5 999.0
03 21.07 СВ 2 н/о н/о +31.8 +26.9 75 +49 +49 опасность
перегрева
1002.8 1000.4
06 21.07 СВ 4 н/о н/о +33.9 +25.7 62 +49 +49 опасность
перегрева
1003.1 1000.7 +30.7
09 21.07 н/о н/о +35.3 +25.9 58 1001.9 999.5
12 21.07 С 4 н/о н/о +34.6 +26.4 63 +52 +52 опасность
перегрева
999.4 997.0
15 21.07 С 4 н/о н/о +32.9 +27.0 71 +51 +51 опасность
перегрева
999.1 996.7
18 21.07 С 3 н/о н/о +31.9 +27.6 78 +51 +51 опасность
перегрева
1000.5 998.0 +36.0
21 21.07 СЗ 3 н/о н/о +31.6 +28.3 83 +53 +53 опасность
перегрева
1001.0 998.6
00 22.07 С 2 н/о н/о +31.3 +27.7 81 +51 +51 опасность
перегрева
999.8 997.3
03 22.07 н/о н/о +31.5 +27.5 79 1001.3 998.9
06 22.07 СВ 3 н/о н/о +34.3 +27.0 66 +52 +52 опасность
перегрева
1001.3 998.9 +30.9
09 22.07 С 4 н/о н/о +34.9 +26.4 61 +51 +51 опасность
перегрева
999.7 997.3
12 22.07 С 4 н/о н/о +34.4 +26.6 64 +52 +52 опасность
перегрева
998.2 995.8
15 22.07 н/о н/о +32.7 +27.1 72 998.0 995.6
18 22.07 н/о н/о +31.6 +27.7 80 998.3 995.9 +35.9
21 22.07 н/о н/о +31.7 +27.3 78 998.7 996.3
00 23.07 С 2 н/о н/о +31.7 +27.3 78 +50 +50 опасность
перегрева
999.0 996.6
03 23.07 В 3 н/о н/о +32.1 +26.5 72 +49 +49 опасность
перегрева
1000.8 998.4
06 23.07 С 2 н/о н/о +34.9 +24.5 55 +48 +48 опасность
перегрева
997.6 +31.2

 

Местоположение метеостанции Диба (Оман): широта 25.62 долгота 56.25 высота над уровнем моря 20 м.

В архиве по умолчанию представлена погода в Дибе за последнюю неделю. Архивные данные за месяц целиком и за предыдущие месяцы, начиная с января 2011 года, Вы можете получить, выбрав интересующий диапазон дат из раскрывающегося списка и нажав кнопку "Ввод!".


*Определитесь, кто Вы:
робот инопланетянин человек

Внимание! Время в таблицах - всемирное. Для получения местного времени необходимо прибавить поправку, которая равна 4 ч.

Смотрите также архив погоды в соседних городах и на ближайших метеорологических станциях:

Погода в Рай-эль-Хайма аэропорту (ОАЭ) (32 км)
Погода в Фуджейре (ОАЭ) (58 км)
Погода в Эль-Хасаб аэропорту (Оман) (61 км)
Погода в Эль-Хасабе (Оман) (66 км)
Погода в Шардже (ОАЭ) (80 км)
Погода в Дубае (ОАЭ) (101 км)
Погода в Сухаре (Оман) (134 км)
Погода в Аль-Мактум аэропорту (ОАЭ) (136 км)
Погода на Острове Абу-Муса (Иран) (144 км)
Погода в Джаске (Иран) (152 км)

Пояснения к столбцам:

Ветер - указаны скорость ветра в м/с - средняя за 10 мин, порывы в срок и между сроками (в фигурных скобках) и направление, откуда дует ветер: С - северный, СВ - северо-восточный, В - восточный, ЮВ - юго-восточный, Ю - южный, ЮЗ - юго-западный, З - западный, СЗ - северо-западный.
Видимость - горизонтальная дальность видимости в метрах или километрах. При видимости от 1 до 10 км при отсутствии осадков обычно наблюдается дымка, при ухудшении видимости до 1 км и менее - туман. В сухую погоду видимость может ухудшаться дымом, пылью или мглою.
Явления - указаны атмосферные явления, наблюдавшиеся в срок или в последний час перед сроком; фигурными скобками обозначены явления, наблюдавшиеся между сроками (за 1-3 часа до срока); квадратными скобками обозначены град или гололедные отложения с указанием их диаметра в мм.
Облачность - указаны через наклонную черту общая и нижняя облачность в баллах и высота нижней границы облаков в метрах; квадратными скобками обозначены формы облаков: Ci - перистые, Cs - перисто-слоистые, Cc - перисто-кучевые, Ac - высококучевые, As - высокослоистые, Sc - слоисто-кучевые, Ns - слоисто-дождевые, Cu - кучевые, Cb - кучево-дождевые. Подробнее классификацию облаков см. в Атласе облаков (PDF).
T - Температура воздуха - температура, измеренная на высоте 2 м над землей.
Td - Температура точки росы - температура, при понижении до которой содержащийся в воздухе водяной пар достигнет насыщения.
f - Относительная влажность воздуха - влажноcть воздуха, измеренная на высоте 2 м над землей.
Te - Эффективная температура - температура, которую ощущает одетый по сезону человек в тени. Характеристика душности погоды. При расчете учитывается влияние влажности воздуха и скорости ветра на теплоощущения человека.
Tes - Эффективная температура на солнце - температура, которую ощущает человек, с поправкой на солнечный нагрев. Характеристика знойности погоды. Зависит от высоты солнца над горизонтом, облачности и скорости ветра. Ночью, в пасмурную погоду, а также при ветре 12 м/с и более поправка равна нулю.
P - Атмосферное давление - приведенное к уровню моря атмосферное давление.
Po - Атмосферное давление - измеренное на уровне метеостанции атмосферное давление.
Tmin - Минимальная температура - минимум температуры воздуха на высоте 2 м над землей.
Tmax - Максимальная температура - максимум температуры воздуха на высоте 2 м над землей.
R - Количество осадков - Количество выпавших осадков за период времени, мм. При наведении курсора мыши на число - период времени, за который выпало указанное количество осадков.
R24 - Количество осадков - Количество выпавших осадков за 24 часа, мм.
S - Снежный покров - Высота снежного покрова, см. При наведении курсора мыши на число - состояние снежного покрова и степень покрытия местности в баллах.